Location: Hochstatterhof
(48.7256°N, 10.3487°E)
Time: 03:11:44
(UTC+00:00)

Cosmos 1553 Rocket - Pass Details

Date: 26 September 2023
Orbit: 942 x 1007 km, 82.9° (Epoch: 04 December)

Event Time Altitude Azimuth Distance (km) Brightness Sun altitude
Rises 02:27:41 0° 348° (NNW) 3,632 7.2 -26.3°
Reaches altitude 10° 02:30:11 10° 346° (NNW) 2,689 6.5 -26.0°
Maximum altitude 02:36:15 66° 266° (W) 1,044 3.8 -25.1°
Enters shadow 02:37:20 56° 217° (SW) 1,136 4.0 -25.0°
